Location: Gro�bocka
(50.8204°N, 11.9702°E)
Time: 07:44:59
(UTC+00:00)

SL-4 R/B - Pass Details

Date: 29 October 2020
Orbit: 427 x 665 km, 51.6° (Epoch: 01 December)

Event Time Altitude Azimuth Distance (km) Brightness Sun altitude
Rises 17:28:52 0° 283° (WNW) 2,436 6.9 -15.8°
Reaches altitude 10° 17:30:56 10° 282° (WNW) 1,587 5.6 -16.2°
Maximum altitude 17:34:29 79° 197° (SSW) 484 1.7 -16.7°
Enters shadow 17:35:50 37° 115° (ESE) 754 2.2 -16.9°
